#timestamp,LO_Frequency,Hit,StdDev 
1513893615.0,286047004.4,N
1513893615.9,286047004.4,N
1513893635.7,286047003.9,N
1513893655.6,286047001.2,N
1513893675.4,286047001.0,N
1513893695.3,286046999.9,N
1513893715.1,286047002.8,N
1513893735.8,286047001.1,N
1513893755.7,286046999.9,N
1513893775.5,286047002.2,N
1513893795.4,286047007.0,N
1513893815.2,286047008.0,Y
1513893835.0,286047004.8,P
1513893835.9,286047004.8,P
1513893855.8,286047004.8,P
1513893875.6,286047003.3,Y
1513893895.5,286046998.4,P
1513893915.3,286046995.0,N
1513893935.1,286046997.6,N
1513893955.9,286046998.4,N
1513893975.7,286047000.1,N
1513893995.5,286046998.6,N
1513894015.4,286046995.5,N
1513894035.2,286047002.3,N
1513894055.1,286046995.6,N
1513894056.0,286046995.6,N
1513894075.8,286046997.3,N
1513894095.6,286046995.8,N
1513894115.5,286046995.5,N
1513894135.3,286046997.5,N
1513894155.2,286046999.0,N
1513894175.9,286046996.5,N
1513894195.7,286046998.2,N
1513894215.6,286046999.9,N
1513894235.4,286047000.8,N
1513894255.2,286046998.8,N
1513894275.1,286046996.6,N
1513894276.0,286046996.6,N
1513894295.8,286047000.7,N
1513894315.7,286046997.7,N
1513894335.5,286047000.9,N
1513894355.3,286046999.0,N
1513894375.2,286046999.2,N
1513894395.0,286046997.4,N
1513894395.9,286046997.4,N
1513894415.8,286046999.0,N
1513894435.6,286047000.2,N
1513894455.4,286046998.3,N
1513894475.3,286046996.5,N
1513894495.1,286046995.0,N
1513894515.8,286046998.5,N
1513894535.7,286046998.9,N
1513894555.5,286047001.2,N
1513894575.4,286047001.1,N
1513894595.2,286046999.4,N
1513894615.0,286046996.6,N
1513894615.9,286046996.6,N
1513894635.8,286046997.1,N
1513894655.6,286046995.3,N
1513894675.5,286046996.6,N
1513894695.3,286047000.0,N
1513894715.1,286046999.1,N
1513894735.9,286046998.3,N
1513894755.7,286046991.8,Y
1513894775.5,286046996.0,P
1513894795.4,286046994.0,P
1513894815.2,286046995.8,N
1513894835.1,286046997.2,N
1513894836.0,286046997.2,N
1513894855.8,286046998.5,N
1513894875.6,286046996.6,N
1513894895.5,286046996.7,N
1513894915.3,286046990.2,Y
1513894935.2,286046997.9,P
1513894955.9,286046998.4,N
1513894975.7,286046998.5,N
1513894995.6,286047004.1,Y
1513895015.4,286047005.7,P
1513895035.2,286047005.8,N
1513895055.1,286047006.9,N
1513895056.0,286047006.9,N
1513895075.8,286047006.4,N
1513895095.7,286047007.8,N
1513895115.5,286047012.4,Y
1513895135.3,286047003.3,P
1513895155.2,286047004.8,P
1513895175.0,286047005.1,P
1513895175.9,286047005.1,Y
1513895195.8,286046999.2,P
1513895215.6,286046995.6,N
1513895235.4,286046997.9,N
1513895255.3,286046994.5,N
1513895275.1,286046993.9,N
1513895295.9,286046995.8,N
1513895315.7,286047000.2,N
1513895335.5,286046999.6,N
1513895355.4,286046992.6,N
1513895375.2,286046996.9,N
1513895395.0,286046996.0,N
1513895395.9,286046996.0,N
1513895415.8,286046999.6,N
1513895435.6,286046995.7,N
1513895455.5,286046995.8,N
1513895475.3,286046997.5,N
1513895495.1,286046993.8,N
1513895515.9,286046991.9,N
1513895535.7,286046990.4,Y
1513895555.5,286046994.3,P
1513895575.4,286046992.7,P
1513895595.2,286046992.1,P
1513895615.1,286046991.8,Y
1513895616.0,286046991.8,P
1513895635.8,286047000.4,N
1513895655.6,286047000.6,N
1513895675.5,286047002.5,N
1513895695.3,286047002.3,N
1513895715.2,286047002.8,N
1513895735.9,286046999.9,N
1513895755.7,286046998.6,N
1513895775.6,286047000.9,N
1513895795.4,286046999.7,N
1513895815.3,286047001.3,N
1513895835.1,286047004.3,N
1513895836.0,286047004.3,N
1513895855.8,286046999.1,N
1513895875.7,286046996.6,N
1513895895.5,286047001.9,N
1513895915.3,286047003.3,N
1513895935.2,286047008.7,N
1513895955.0,286047006.5,N
1513895955.9,286047006.5,N
1513895975.8,286047004.4,N
1513895995.6,286047004.0,N
1513896015.4,286047005.3,N
1513896035.3,286047003.3,N
1513896055.1,286047001.8,N
1513896075.9,286047002.8,N
1513896095.7,286047004.3,N
1513896115.5,286047005.8,N
1513896135.4,286047001.5,N
1513896155.2,286047004.0,N
1513896175.0,286047000.7,N
1513896175.9,286047000.7,N
1513896195.8,286047002.4,N
1513896215.6,286047001.7,N
1513896235.5,286047004.2,N
1513896255.3,286047002.2,N
1513896275.1,286047002.6,N
1513896295.9,286047002.3,N
1513896315.7,286047000.2,N
1513896335.5,286047001.9,N
1513896355.4,286047004.2,N
1513896375.2,286047002.5,N
1513896395.1,286047001.6,N
1513896396.0,286047001.6,N
1513896415.8,286047001.9,N
1513896435.6,286047006.0,Y
1513896455.5,286046999.2,P
1513896475.3,286046993.5,P
1513896495.2,286046993.9,N
1513896515.9,286046995.1,N
1513896535.7,286046994.9,N
1513896555.6,286046998.0,N
1513896575.4,286046995.4,N
1513896595.2,286046995.6,N
1513896615.1,286046996.7,N
1513896616.0,286046996.7,N
1513896635.8,286046997.2,N
1513896655.7,286046999.3,N
1513896675.5,286046998.6,N
1513896695.3,286046995.3,N
1513896715.2,286046993.2,N
1513896735.0,286046994.2,N
1513896735.9,286046994.2,N
1513896755.8,286046991.7,Y
1513896775.6,286046995.1,P
1513896795.4,286046997.3,P
1513896815.3,286047001.0,N
1513896835.1,286046999.9,N
1513896855.8,286047003.8,N
1513896875.7,286046995.4,N
1513896895.5,286046992.4,N
1513896915.4,286046992.5,N
1513896935.2,286046993.7,N
1513896955.0,286046999.0,N
1513896955.9,286046999.0,N
1513896975.8,286047000.8,N
1513896995.6,286047002.7,N
1513897015.5,286047001.5,N
1513897035.3,286046995.7,N
1513897055.1,286046992.1,N
1513897075.9,286046995.9,N
1513897095.7,286047001.6,N
1513897115.5,286046998.2,N
1513897135.4,286046997.4,N
1513897155.2,286047000.8,N
1513897175.1,286046999.9,N
1513897176.0,286046999.9,N
1513897195.8,286047000.0,N
